Huron, SD

8:56 AM CST on December 15, 2017 (GMT -0600)
Huron Regional

Weather History for KHON - December, 2013

Change the Weather History Date:

Saturday, December 7, 2013

  Actual Average Record
Temperature  
Mean Temperature -10 °F 21 °F  
Max Temperature -1 °F 31 °F 60 °F (1918)
Min Temperature -20 °F 12 °F -21 °F (1976)
Degree Days  
Heating Degree Days 75 44  
Month to date heating degree days 363 296  
Since 1 July heating degree days 2000 1998  
Cooling Degree Days 0 0  
Month to date cooling degree days 0 0  
Year to date cooling degree days 848 742  
Moisture  
Dew Point -15 °F    
Average Humidity 73    
Maximum Humidity 81    
Minimum Humidity 65    
Precipitation  
Precipitation T in 0.02 in 0.33 in (1963)
Month to date precipitation 0.32 0.13  
Year to date precipitation 24.50 22.51  
Snow  
Snow T in 0.30 in 3.90 in (1963)
Month to date snowfall 3.5 1.8  
Since 1 July snowfall 6.0 10.1  
Snow Depth 3.00 in    
Sea Level Pressure  
Sea Level Pressure 30.71 in    
Wind  
Wind Speed 5 mph (SW)    
Max Wind Speed 22 mph    
Max Gust Speed 31 mph    
Visibility 9 miles    
Events Snow    
T = Trace of Precipitation, MM = Missing Value Source: NWS Daily Summary

Daily Weather History Graph

Daily Weather History Graph

Search for Another Location

Airport or City:

Trip Planner

Search our weather history database for the weather conditions in past years. The results will help you decide how hot, cold, wet, or windy it might be!

Date:

Astronomy

Dec. 07, 2013 Rise Set
Actual Time 7:55 AM CST 4:53 PM CST
Civil Twilight 7:22 AM CST 5:26 PM CST
Nautical Twilight 6:45 AM CST 6:03 PM CST
Astronomical Twilight 6:10 AM CST 6:38 PM CST
Moon 11:33 AM CST (12/7) 10:46 PM CST (12/7)
Length of Visible Light 10h 04m
Length of Day
8h 58m
Waxing Crescent, 29% of the Moon is Illuminated
Dec 7
Waxing Crescent
Dec 9
First Quarter
Dec 17
Full
Dec 25
Last Quarter
Jan 1
New

Hourly Weather History & Observations

Time (CST) Temp. Windchill Dew Point Humidity Pressure Visibility Wind Dir Wind Speed Gust Speed Precip Events Conditions
12:55 AM -15.0 °F -27.4 °F -20.9 °F 75% 30.81 in 10.0 mi West 4.6 mph - N/A   Clear
1:55 AM -16.1 °F -28.6 °F -20.9 °F 79% 30.80 in 10.0 mi West 4.6 mph - N/A   Clear
2:55 AM -16.1 °F -30.6 °F -20.9 °F 79% 30.80 in 10.0 mi WNW 5.8 mph - N/A   Clear
3:55 AM -17.0 °F -29.7 °F -23.1 °F 74% 30.79 in 10.0 mi WNW 4.6 mph - N/A   Clear
4:55 AM -18.0 °F -34.7 °F -24.0 °F 74% 30.80 in 10.0 mi West 6.9 mph - N/A   Partly Cloudy
5:55 AM -18.0 °F -33.0 °F -23.1 °F 78% 30.80 in 10.0 mi West 5.8 mph - N/A   Clear
6:55 AM -20.0 °F -35.3 °F -25.1 °F 78% 30.81 in 10.0 mi West 5.8 mph - N/A   Clear
7:55 AM -17.0 °F -27.2 °F -22.0 °F 78% 30.82 in 10.0 mi WSW 3.5 mph - N/A   Mostly Cloudy
8:55 AM -15.0 °F -25.0 °F -20.9 °F 75% 30.81 in 10.0 mi West 3.5 mph - N/A   Scattered Clouds
9:55 AM -11.0 °F -24.6 °F -17.0 °F 75% 30.83 in 10.0 mi West 5.8 mph - N/A   Clear
10:55 AM -9.0 °F - -15.0 °F 75% 30.82 in 10.0 mi Calm Calm - N/A   Clear
11:55 AM -6.0 °F - -13.0 °F 72% 30.79 in 10.0 mi Calm Calm - N/A   Overcast
12:23 PM -5.8 °F -16.7 °F -13.0 °F 71% 30.64 in 2.5 mi WSW 4.6 mph - 0.00 in Snow Light Snow
12:39 PM -5.8 °F -14.5 °F -13.0 °F 71% 30.64 in 3.0 mi WSW 3.5 mph - 0.00 in Snow Light Snow
12:48 PM -4.0 °F -12.4 °F -11.2 °F 71% 30.64 in 2.5 mi Variable 3.5 mph - 0.00 in Snow Light Snow
12:52 PM -5.8 °F -16.7 °F -11.2 °F 77% 30.63 in 3.0 mi SW 4.6 mph - 0.00 in Snow Light Snow
12:55 PM -5.1 °F -13.6 °F -11.9 °F 72% 30.76 in 4.0 mi SW 3.5 mph - 0.00 in Snow Light Snow
1:55 PM -2.9 °F - -11.0 °F 68% 30.73 in 10.0 mi Calm Calm - 0.00 in   Overcast
2:55 PM -2.9 °F -11.2 °F -11.0 °F 68% 30.71 in 10.0 mi South 3.5 mph - N/A   Overcast
3:55 PM -2.9 °F - -11.0 °F 68% 30.68 in 10.0 mi Calm Calm - N/A   Overcast
4:55 PM -4.0 °F -12.4 °F -11.9 °F 69% 30.66 in 10.0 mi ESE 3.5 mph - N/A   Overcast
5:55 PM -4.0 °F -14.6 °F -11.9 °F 69% 30.64 in 10.0 mi ESE 4.6 mph - N/A   Overcast
6:55 PM -4.0 °F -19.0 °F -11.9 °F 69% 30.62 in 10.0 mi ESE 8.1 mph - N/A   Overcast
7:55 PM -2.9 °F -17.7 °F -11.9 °F 65% 30.61 in 10.0 mi SE 8.1 mph - N/A   Overcast
8:55 PM -2.9 °F -17.7 °F -11.0 °F 68% 30.59 in 10.0 mi SSE 8.1 mph - N/A   Overcast
9:55 PM -2.9 °F -18.8 °F -9.9 °F 72% 30.56 in 10.0 mi SSE 9.2 mph - N/A   Overcast
10:55 PM -2.0 °F -15.4 °F -9.9 °F 69% 30.53 in 10.0 mi SE 6.9 mph - N/A   Overcast
11:55 PM -0.9 °F -18.3 °F -8.0 °F 72% 30.51 in 3.0 mi SSE 11.5 mph 43.7 mph 0.00 in Snow Light Snow